WXM80 ListenWXM80 Stop

You find our weather info also at:

UK Metoffice

WeatherCloud

Weather Underground

Northeastern Weather Network

AWEKAS

Citizen Weather Observer Program (CWOP)

HAMweather, WeatherForYou, PWS Weather


Weather Underground History page Text

Daily Summary for March 15, 2017 Units:  Metric    English   Both
« Previous Day
Next Day »
Daily Weekly Monthly Yearly Custom
  High: Low: Average:
Temperature: -1.8 °C -6 °C -3.9 °C
Dew Point: -7.4 °C -11.2 °C -9.4 °C
Humidity: 76 % 56 % 66 %
Wind Speed: 24.8 km/h 4.5 km/h 14.3 km/h
Wind Gust: 46.3 km/h - -
Wind:- - West
Pressure: 1008.7 hPa 996.5 hPa -
Precipitation: 0.25 mm    
Historical Graphs
 
 
Tabular Data for March 15, 2017
Time Temperature Dew Point Pressure Wind Wind Speed Wind Gust Humidity Rainfall Rate (Hourly)
00:03 -4.6 °C -8.3 °C 996.5 hPa WSW 9.8 km/h 24.1 km/h 75 % 0 mm
00:08 -4.6 °C -8.4 °C 996.8 hPa West 6.4 km/h 18.5 km/h 75 % 0 mm
00:14 -4.7 °C -8.3 °C 996.5 hPa WSW 12.2 km/h 16.7 km/h 76 % 0 mm
00:19 -4.7 °C -8.5 °C 996.8 hPa SW 15 km/h 25.9 km/h 75 % 0 mm
00:24 -4.7 °C -8.3 °C 996.5 hPa West 10 km/h 16.7 km/h 76 % 0 mm
00:29 -4.8 °C -8.4 °C 996.5 hPa SW 9.7 km/h 18.5 km/h 76 % 0 mm
00:34 -4.8 °C -8.6 °C 996.5 hPa WSW 7.7 km/h 18.5 km/h 75 % 0 mm
00:39 -4.9 °C -8.7 °C 996.5 hPa WSW 13.2 km/h 27.8 km/h 75 % 0 mm
00:44 -4.9 °C -8.9 °C 996.5 hPa West 15.3 km/h 27.8 km/h 74 % 0 mm
00:49 -5 °C -8.7 °C 996.5 hPa West 15.4 km/h 25.9 km/h 75 % 0 mm
00:54 -5 °C -8.7 °C 996.5 hPa NW 9 km/h 19.3 km/h 75 % 0 mm
00:59 -5.1 °C -8.8 °C 996.5 hPa WSW 10.1 km/h 18.5 km/h 75 % 0 mm
01:04 -5.1 °C -9 °C 996.8 hPa WNW 15.6 km/h 33.3 km/h 74 % 0 mm
01:09 -5.2 °C -9.1 °C 996.8 hPa WNW 9.3 km/h 14.8 km/h 74 % 0 mm
01:14 -5.2 °C -9.3 °C 996.8 hPa NNW 15.4 km/h 29 km/h 73 % 0 mm
01:19 -5.3 °C -9.4 °C 997.2 hPa West 9.5 km/h 25.9 km/h 73 % 0 mm
01:24 -5.3 °C -9.4 °C 997.2 hPa WSW 13.8 km/h 22.2 km/h 73 % 0 mm
01:30 -5.3 °C -9.6 °C 997.2 hPa SSW 14 km/h 24.1 km/h 72 % 0 mm
01:35 -5.4 °C -9.7 °C 997.2 hPa SW 15.4 km/h 27.8 km/h 72 % 0 mm
01:40 -5.5 °C -9.8 °C 997.5 hPa West 15.6 km/h 18.5 km/h 72 % 0 mm
01:45 -5.5 °C -9.6 °C 997.5 hPa SW 8.7 km/h 18.5 km/h 73 % 0 mm
01:50 -5.6 °C -9.8 °C 997.9 hPa SW 15.3 km/h 29.6 km/h 72 % 0 mm
01:55 -5.6 °C -9.4 °C 997.9 hPa SW 15.4 km/h 20.9 km/h 74 % 0.25 mm
02:00 -5.6 °C -9.8 °C 998.2 hPa WSW 10 km/h 25.9 km/h 72 % 0.25 mm
02:05 -5.6 °C -9.6 °C 998.2 hPa WSW 4.5 km/h 7.4 km/h 73 % 0.25 mm
02:10 -5.6 °C -9.8 °C 998.2 hPa West 14 km/h 25.9 km/h 72 % 0.25 mm
02:15 -5.6 °C -10 °C 998.2 hPa West 13.8 km/h 22.2 km/h 71 % 0.25 mm
02:20 -5.6 °C -9.8 °C 998.2 hPa WNW 18.8 km/h 29.6 km/h 72 % 0.25 mm
02:25 -5.6 °C -10 °C 998.2 hPa WNW 18.3 km/h 31.5 km/h 71 % 0.25 mm
02:30 -5.6 °C -10 °C 997.9 hPa West 13.5 km/h 25.9 km/h 71 % 0.25 mm
02:35 -5.6 °C -9.8 °C 998.2 hPa SW 15.3 km/h 24.1 km/h 72 % 0.25 mm
02:40 -5.6 °C -9.8 °C 998.2 hPa WNW 11.7 km/h 29.6 km/h 72 % 0.25 mm
02:46 -5.7 °C -10.1 °C 998.2 hPa WSW 13.7 km/h 33.3 km/h 71 % 0.25 mm
02:51 -5.7 °C -10.2 °C 998.2 hPa WSW 12.9 km/h 20.4 km/h 71 % 0.25 mm
02:56 -5.7 °C -10.2 °C 998.2 hPa NW 10.1 km/h 13 km/h 71 % 0 mm
03:01 -5.7 °C -9.9 °C 998.2 hPa NW 16.3 km/h 31.5 km/h 72 % 0 mm
03:06 -5.8 °C -10.2 °C 998.2 hPa West 14.8 km/h 38.6 km/h 71 % 0 mm
03:11 -5.8 °C -10.2 °C 998.2 hPa West 16.6 km/h 20.4 km/h 71 % 0 mm
03:16 -5.8 °C -10.2 °C 998.2 hPa NW 16.3 km/h 33.3 km/h 71 % 0 mm
03:21 -5.8 °C -10.4 °C 998.2 hPa WNW 16.9 km/h 27.8 km/h 70 % 0 mm
03:26 -5.8 °C -10.4 °C 998.2 hPa West 7.4 km/h 18.5 km/h 70 % 0 mm
03:31 -5.9 °C -10.5 °C 998.5 hPa WNW 12.1 km/h 18.5 km/h 70 % 0 mm
03:36 -5.9 °C -10.5 °C 998.2 hPa West 11.9 km/h 20.4 km/h 70 % 0 mm
03:41 -5.9 °C -10.5 °C 998.5 hPa West 18.2 km/h 38.9 km/h 70 % 0 mm
03:46 -5.9 °C -10.6 °C 998.5 hPa West 18.7 km/h 33.3 km/h 70 % 0 mm
03:51 -5.9 °C -10.6 °C 998.5 hPa West 17.2 km/h 27.8 km/h 70 % 0 mm
03:56 -5.9 °C -10.7 °C 998.9 hPa NW 13.5 km/h 27.4 km/h 69 % 0 mm
04:01 -5.9 °C -10.7 °C 998.9 hPa WNW 15.4 km/h 27.8 km/h 69 % 0 mm
04:06 -5.9 °C -10.9 °C 998.9 hPa WNW 18.2 km/h 29.6 km/h 68 % 0 mm
04:11 -5.9 °C -10.9 °C 998.9 hPa West 16.6 km/h 29.6 km/h 68 % 0 mm
04:16 -6 °C -10.9 °C 998.5 hPa WNW 18.5 km/h 37 km/h 68 % 0 mm
04:21 -6 °C -10.8 °C 998.5 hPa WSW 9.2 km/h 16.7 km/h 69 % 0 mm
04:26 -6 °C -10.8 °C 998.9 hPa WNW 14.8 km/h 25.7 km/h 69 % 0 mm
04:31 -6 °C -10.8 °C 998.9 hPa WSW 14 km/h 29.6 km/h 69 % 0 mm
04:36 -6 °C -10.8 °C 998.9 hPa NNW 17.5 km/h 31.5 km/h 69 % 0 mm
04:41 -6 °C -10.8 °C 998.9 hPa WSW 15.9 km/h 31.5 km/h 69 % 0 mm
04:46 -6 °C -10.8 °C 998.9 hPa WNW 16.6 km/h 25.9 km/h 69 % 0 mm
04:51 -6 °C -10.8 °C 998.9 hPa West 17.1 km/h 33.8 km/h 69 % 0 mm
04:56 -6 °C -10.8 °C 998.9 hPa WNW 14.6 km/h 33.3 km/h 69 % 0 mm
05:01 -6 °C -10.8 °C 999.2 hPa WNW 11.3 km/h 20.4 km/h 69 % 0 mm
05:06 -6 °C -10.6 °C 999.2 hPa WSW 13 km/h 20.4 km/h 70 % 0 mm
05:11 -6 °C -10.6 °C 999.2 hPa WNW 17.2 km/h 24.1 km/h 70 % 0 mm
05:16 -5.9 °C -10.7 °C 999.2 hPa WSW 13.5 km/h 22.5 km/h 69 % 0 mm
05:21 -5.9 °C -10.7 °C 999.2 hPa WNW 20.1 km/h 35.2 km/h 69 % 0 mm
05:26 -5.9 °C -10.7 °C 999.2 hPa NW 22.9 km/h 32.2 km/h 69 % 0 mm
05:32 -5.9 °C -10.5 °C 999.2 hPa WNW 14.2 km/h 27.4 km/h 70 % 0 mm
05:37 -5.8 °C -10.4 °C 999.2 hPa NW 14.5 km/h 33.3 km/h 70 % 0 mm
05:42 -5.8 °C -10.4 °C 999.2 hPa WNW 15.6 km/h 20.4 km/h 70 % 0 mm
05:47 -5.8 °C -10.4 °C 999.2 hPa SW 10.9 km/h 20.4 km/h 70 % 0 mm
05:52 -5.8 °C -10.6 °C 999.2 hPa NW 9 km/h 19.3 km/h 69 % 0 mm
05:57 -5.8 °C -10.7 °C 999.2 hPa West 15.1 km/h 31.5 km/h 68 % 0 mm
06:02 -5.8 °C -10.7 °C 999.2 hPa WSW 11.6 km/h 31.5 km/h 68 % 0 mm
06:07 -5.8 °C -10.7 °C 999.5 hPa WSW 12.7 km/h 22.5 km/h 68 % 0 mm
06:12 -5.8 °C -10.6 °C 999.5 hPa West 20.3 km/h 31.5 km/h 69 % 0 mm
06:17 -5.8 °C -10.7 °C 999.5 hPa West 13 km/h 22.2 km/h 68 % 0 mm
06:22 -5.8 °C -10.7 °C 999.5 hPa WSW 15 km/h 30.6 km/h 68 % 0 mm
06:27 -5.8 °C -10.7 °C 999.2 hPa WSW 14.2 km/h 31.5 km/h 68 % 0 mm
06:32 -5.8 °C -10.6 °C 999.5 hPa SW 12.9 km/h 18.5 km/h 69 % 0 mm
06:37 -5.8 °C -10.4 °C 999.5 hPa West 16.4 km/h 29.6 km/h 70 % 0 mm
06:42 -5.8 °C -10.6 °C 999.5 hPa WNW 21.2 km/h 37 km/h 69 % 0 mm
06:47 -5.8 °C -10.8 °C 999.5 hPa SW 12.4 km/h 18.5 km/h 68 % 0 mm
06:52 -5.8 °C -11 °C 999.5 hPa West 17.1 km/h 31.5 km/h 67 % 0 mm
06:57 -5.8 °C -11 °C 999.5 hPa West 19.2 km/h 27.4 km/h 67 % 0 mm
07:03 -5.8 °C -11 °C 999.5 hPa NW 17.9 km/h 32.2 km/h 67 % 0 mm
07:08 -5.8 °C -11 °C 999.9 hPa West 11.3 km/h 24.1 km/h 67 % 0 mm
07:13 -5.8 °C -11.2 °C 999.9 hPa WSW 11.3 km/h 35.4 km/h 66 % 0 mm
07:18 -5.8 °C -11 °C 999.9 hPa West 14.2 km/h 25.9 km/h 67 % 0 mm
07:23 -5.8 °C -10.9 °C 999.9 hPa West 18.2 km/h 37 km/h 67 % 0 mm
07:28 -5.8 °C -11.1 °C 999.9 hPa WNW 12.7 km/h 27.8 km/h 66 % 0 mm
07:33 -5.7 °C -10.9 °C 999.9 hPa WSW 18.7 km/h 29.6 km/h 67 % 0 mm
07:38 -5.6 °C -10.9 °C 999.9 hPa West 13.4 km/h 20.4 km/h 66 % 0 mm
07:43 -5.5 °C -10.7 °C 999.9 hPa SW 17.2 km/h 25.9 km/h 67 % 0 mm
07:49 -5.4 °C -10.6 °C 999.9 hPa WSW 16.1 km/h 31.5 km/h 67 % 0 mm
07:54 -5.3 °C -10.3 °C 999.9 hPa NW 12.6 km/h 31.5 km/h 68 % 0 mm
07:59 -5.2 °C -10 °C 999.9 hPa WNW 10.6 km/h 18.5 km/h 69 % 0 mm
08:04 -5.2 °C -10.2 °C 999.9 hPa WSW 11.6 km/h 20.4 km/h 68 % 0 mm
08:09 -5.1 °C -10.1 °C 1000.2 hPa West 19 km/h 30.6 km/h 68 % 0 mm
08:14 -5.1 °C -10.1 °C 999.9 hPa WNW 20.3 km/h 38.9 km/h 68 % 0 mm
08:19 -4.9 °C -9.9 °C 1000.2 hPa WNW 13.7 km/h 25.7 km/h 68 % 0 mm
08:24 -4.8 °C -9.8 °C 1000.2 hPa WSW 15.9 km/h 31.5 km/h 68 % 0 mm
08:29 -4.7 °C -10.1 °C 1000.2 hPa WSW 20.1 km/h 35.2 km/h 66 % 0 mm
08:34 -4.7 °C -9.9 °C 999.9 hPa West 12.2 km/h 20.4 km/h 67 % 0 mm
08:39 -4.7 °C -10.1 °C 999.9 hPa WNW 16.7 km/h 31.5 km/h 66 % 0 mm
08:44 -4.7 °C -9.9 °C 999.9 hPa West 7.4 km/h 24.1 km/h 67 % 0 mm
08:49 -4.6 °C -10 °C 999.9 hPa NW 18.3 km/h 31.5 km/h 66 % 0 mm
08:54 -4.6 °C -10.2 °C 999.9 hPa SW 18 km/h 31.5 km/h 65 % 0 mm
08:59 -4.7 °C -10.4 °C 999.9 hPa West 10.9 km/h 33.3 km/h 64 % 0 mm
09:04 -4.6 °C -10.4 °C 999.9 hPa West 15.8 km/h 31.5 km/h 64 % 0 mm
09:09 -4.4 °C -10 °C 1000.2 hPa NW 12.6 km/h 18.5 km/h 65 % 0 mm
09:14 -4.3 °C -10.1 °C 1000.2 hPa NNW 13.2 km/h 18.5 km/h 64 % 0 mm
09:20 -4.1 °C -9.7 °C 1000.2 hPa NW 13.8 km/h 18.5 km/h 65 % 0 mm
09:25 -4 °C -10 °C 1000.2 hPa WSW 18.5 km/h 32.2 km/h 63 % 0 mm
09:30 -3.9 °C -9.8 °C 1000.2 hPa West 17.1 km/h 27.8 km/h 64 % 0 mm
09:35 -4 °C -10 °C 1000.2 hPa WNW 16.4 km/h 31.5 km/h 63 % 0 mm
09:40 -3.9 °C -9.9 °C 1000.2 hPa West 13.8 km/h 38.9 km/h 63 % 0 mm
09:45 -3.9 °C -10.1 °C 1000.2 hPa West 17.9 km/h 35.2 km/h 62 % 0 mm
09:50 -3.7 °C -9.9 °C 1000.2 hPa West 10.1 km/h 31.5 km/h 62 % 0 mm
09:55 -3.6 °C -10.3 °C 1000.2 hPa SSW 22.9 km/h 46.3 km/h 60 % 0 mm
10:00 -3.6 °C -9.8 °C 1000.2 hPa NW 12.2 km/h 29.6 km/h 62 % 0 mm
10:05 -3.6 °C -10 °C 1000.2 hPa West 19.5 km/h 35.2 km/h 61 % 0 mm
10:10 -3.6 °C -10 °C 1000.2 hPa WNW 16.3 km/h 29.6 km/h 61 % 0 mm
10:15 -3.5 °C -9.6 °C 1000.2 hPa NW 9.7 km/h 24.1 km/h 63 % 0 mm
10:20 -3.4 °C -9.9 °C 1000.2 hPa SW 13.5 km/h 25.9 km/h 61 % 0 mm
10:25 -3.4 °C -9.6 °C 1000.2 hPa NW 16.4 km/h 22.2 km/h 62 % 0 mm
10:30 -3.3 °C -9.7 °C 1000.2 hPa WSW 10.8 km/h 20.9 km/h 61 % 0 mm
10:35 -3.1 °C -9.8 °C 1000.6 hPa WSW 17.7 km/h 29.6 km/h 60 % 0 mm
10:40 -3 °C -9.9 °C 1000.2 hPa West 14.5 km/h 27.8 km/h 59 % 0 mm
10:45 -2.9 °C -9.8 °C 1000.2 hPa West 14.6 km/h 31.5 km/h 59 % 0 mm
10:50 -2.8 °C -9.7 °C 1000.2 hPa WNW 10.5 km/h 25.9 km/h 59 % 0 mm
10:56 -2.7 °C -10 °C 1000.2 hPa WSW 18.8 km/h 31.5 km/h 57 % 0 mm
11:01 -2.6 °C -9.5 °C 999.9 hPa West 17.9 km/h 29 km/h 59 % 0 mm
11:06 -2.6 °C -9.7 °C 1000.2 hPa SSW 12.2 km/h 25.9 km/h 58 % 0 mm
11:11 -2.6 °C -9.3 °C 1000.2 hPa NW 17.5 km/h 33.3 km/h 60 % 0 mm
11:16 -2.7 °C -9.6 °C 1000.2 hPa West 18.3 km/h 25.9 km/h 59 % 0 mm
11:21 -2.8 °C -9.5 °C 1000.2 hPa WNW 14.2 km/h 27.8 km/h 60 % 0 mm
11:26 -2.7 °C -9.6 °C 1000.2 hPa WNW 9 km/h 25.9 km/h 59 % 0 mm
11:31 -2.6 °C -8.7 °C 1000.2 hPa WSW 16.3 km/h 31.5 km/h 63 % 0 mm
11:36 -2.4 °C -8.5 °C 999.9 hPa WNW 11.3 km/h 16.7 km/h 63 % 0 mm
11:41 -2.3 °C -9.1 °C 999.9 hPa NW 15.9 km/h 29.6 km/h 60 % 0 mm
11:46 -2.2 °C -9.2 °C 999.9 hPa West 14 km/h 25.9 km/h 59 % 0 mm
11:51 -2.3 °C -9 °C 999.9 hPa West 15 km/h 27.8 km/h 60 % 0 mm
11:56 -2.4 °C -9.1 °C 999.5 hPa West 17.5 km/h 24.1 km/h 60 % 0 mm
12:01 -2.5 °C -9.7 °C 999.9 hPa SW 17.4 km/h 27.8 km/h 58 % 0 mm
12:07 -2.3 °C -9.5 °C 999.9 hPa WSW 16.9 km/h 37 km/h 58 % 0 mm
12:12 -2.3 °C -9.2 °C 999.9 hPa West 18.3 km/h 25.9 km/h 59 % 0 mm
12:17 -2.4 °C -9.2 °C 999.9 hPa WSW 15.3 km/h 18.5 km/h 60 % 0 mm
12:22 -2.7 °C -9.4 °C 999.9 hPa West 11.3 km/h 11.3 km/h 60 % 0 mm
12:27 -2.6 °C -9.1 °C 999.9 hPa West 20.8 km/h 38.9 km/h 61 % 0 mm
12:32 -2.7 °C -9.2 °C 999.9 hPa NW 11.7 km/h 31.5 km/h 61 % 0 mm
12:37 -2.7 °C -9.2 °C 999.9 hPa WSW 18.8 km/h 25.9 km/h 61 % 0 mm
12:42 -2.7 °C -9.4 °C 999.9 hPa West 13.8 km/h 27.8 km/h 60 % 0 mm
12:47 -2.4 °C -8.9 °C 999.9 hPa WNW 10.6 km/h 22.2 km/h 61 % 0 mm
12:52 -2.3 °C -9.1 °C 999.9 hPa West 21.6 km/h 38.9 km/h 60 % 0 mm
12:57 -2.2 °C -8.5 °C 999.9 hPa WNW 10.6 km/h 18.5 km/h 62 % 0 mm
13:02 -2.4 °C -7.7 °C 999.9 hPa WSW 13.8 km/h 29.6 km/h 67 % 0 mm
13:07 -2.5 °C -7.8 °C 999.9 hPa WSW 13.8 km/h 25.9 km/h 67 % 0 mm
13:12 -2.4 °C -7.7 °C 999.9 hPa SW 9.7 km/h 22.5 km/h 67 % 0 mm
13:17 -2.7 °C -8.3 °C 999.9 hPa West 18.5 km/h 29.6 km/h 65 % 0 mm
13:22 -2.8 °C -7.9 °C 999.9 hPa West 11.6 km/h 18.5 km/h 68 % 0 mm
13:27 -2.8 °C -7.7 °C 999.5 hPa SW 8 km/h 18.5 km/h 69 % 0 mm
13:32 -2.9 °C -8.2 °C 999.5 hPa WNW 12.4 km/h 18.5 km/h 67 % 0 mm
13:37 -2.9 °C -9.2 °C 999.5 hPa WSW 16.6 km/h 37 km/h 62 % 0 mm
13:42 -2.8 °C -9.5 °C 999.5 hPa West 13 km/h 24.1 km/h 60 % 0 mm
13:47 -2.7 °C -8.6 °C 999.5 hPa SW 16.7 km/h 31.5 km/h 64 % 0 mm
13:52 -2.6 °C -8.1 °C 999.9 hPa WSW 10.8 km/h 16.7 km/h 66 % 0 mm
13:57 -2.3 °C -8.2 °C 999.5 hPa WSW 20.3 km/h 31.5 km/h 64 % 0 mm
14:03 -2.2 °C -8.3 °C 999.5 hPa WSW 12.1 km/h 18.5 km/h 63 % 0 mm
14:08 -2.2 °C -7.7 °C 999.5 hPa WSW 10.6 km/h 24.1 km/h 66 % 0 mm
14:13 -2.3 °C -7.6 °C 999.5 hPa SW 12.2 km/h 25.9 km/h 67 % 0 mm
14:18 -2.3 °C -7.4 °C 999.5 hPa WSW 16.9 km/h 29.6 km/h 68 % 0 mm
14:23 -2.3 °C -7.8 °C 999.5 hPa WSW 16.1 km/h 30.6 km/h 66 % 0 mm
14:28 -2.3 °C -8 °C 999.5 hPa West 16.4 km/h 25.9 km/h 65 % 0 mm
14:33 -2.2 °C -8.9 °C 999.5 hPa WSW 8.9 km/h 20.4 km/h 60 % 0 mm
14:38 -2 °C -8.9 °C 999.5 hPa WSW 14.2 km/h 31.5 km/h 59 % 0 mm
14:43 -1.9 °C -9.1 °C 999.5 hPa West 12.2 km/h 22.5 km/h 58 % 0 mm
14:48 -1.8 °C -9.2 °C 999.5 hPa SW 13.2 km/h 18.5 km/h 57 % 0 mm
14:53 -1.8 °C -9.4 °C 999.5 hPa West 15.9 km/h 33.3 km/h 56 % 0 mm
14:58 -1.8 °C -9.2 °C 999.5 hPa WNW 16.3 km/h 42.6 km/h 57 % 0 mm
15:03 -1.9 °C -9.3 °C 999.9 hPa WNW 9.5 km/h 24.1 km/h 57 % 0 mm
15:08 -1.9 °C -9.1 °C 999.5 hPa WSW 12.6 km/h 25.9 km/h 58 % 0 mm
15:13 -1.9 °C -8.9 °C 999.9 hPa WNW 13.5 km/h 27.8 km/h 59 % 0 mm
15:18 -2.1 °C -9.2 °C 999.9 hPa West 16.1 km/h 31.5 km/h 58 % 0 mm
15:23 -2.3 °C -9.1 °C 1000.2 hPa WNW 22.9 km/h 30.6 km/h 60 % 0 mm
15:28 -2.6 °C -8.7 °C 999.9 hPa WSW 12.1 km/h 29.6 km/h 63 % 0 mm
15:33 -2.7 °C -8.9 °C 1000.2 hPa SW 15.1 km/h 33.3 km/h 62 % 0 mm
15:38 -2.7 °C -9.2 °C 1000.2 hPa NW 13.2 km/h 27.4 km/h 61 % 0 mm
15:43 -2.7 °C -9.2 °C 1000.2 hPa WSW 13.4 km/h 27.8 km/h 61 % 0 mm
15:49 -2.7 °C -8.9 °C 1000.2 hPa WNW 12.6 km/h 18.5 km/h 62 % 0 mm
15:53 -2.7 °C -9.2 °C 1000.6 hPa WNW 19.5 km/h 33.3 km/h 61 % 0 mm
15:59 -2.8 °C -8.8 °C 1000.6 hPa WNW 13.7 km/h 22.2 km/h 63 % 0 mm
16:04 -2.7 °C -8.6 °C 1000.6 hPa WSW 15.1 km/h 30.6 km/h 64 % 0 mm
16:09 -2.7 °C -8.4 °C 1000.6 hPa WNW 11.1 km/h 18.5 km/h 65 % 0 mm
16:14 -2.8 °C -8.3 °C 1000.6 hPa West 18.5 km/h 27.4 km/h 66 % 0 mm
16:19 -2.8 °C -8.3 °C 1000.6 hPa West 16.4 km/h 24.1 km/h 66 % 0 mm
16:24 -2.8 °C -8.3 °C 1000.9 hPa West 13 km/h 31.5 km/h 66 % 0 mm
16:29 -2.8 °C -8.1 °C 1000.9 hPa NW 11.7 km/h 25.9 km/h 67 % 0 mm
16:34 -3 °C -8.4 °C 1000.9 hPa NNW 12.7 km/h 27.4 km/h 66 % 0 mm
16:39 -3.1 °C -8.2 °C 1000.9 hPa West 8.9 km/h 16.7 km/h 68 % 0 mm
16:44 -3 °C -7.9 °C 1000.9 hPa NW 14.5 km/h 27.4 km/h 69 % 0 mm
16:49 -2.9 °C -8 °C 1001.2 hPa WSW 13.2 km/h 27.8 km/h 68 % 0 mm
16:54 -2.9 °C -8.2 °C 1001.2 hPa West 12.9 km/h 18.5 km/h 67 % 0 mm
16:59 -2.8 °C -7.9 °C 1001.2 hPa WSW 14.2 km/h 20.4 km/h 68 % 0 mm
17:04 -3 °C -7.5 °C 1001.6 hPa WSW 16.7 km/h 27.8 km/h 71 % 0 mm
17:09 -3.3 °C -7.4 °C 1001.6 hPa WSW 19.2 km/h 29 km/h 73 % 0 mm
17:14 -3.4 °C -7.6 °C 1001.6 hPa West 18.2 km/h 24.1 km/h 73 % 0 mm
17:19 -3.4 °C -7.6 °C 1001.6 hPa WSW 20.4 km/h 35.2 km/h 73 % 0 mm
17:24 -3.4 °C -7.8 °C 1001.6 hPa West 15.3 km/h 24.1 km/h 72 % 0 mm
17:29 -3.4 °C -7.7 °C 1001.6 hPa NNW 9.2 km/h 18.5 km/h 72 % 0 mm
17:34 -3.3 °C -7.6 °C 1001.6 hPa WNW 11.9 km/h 18.5 km/h 72 % 0 mm
17:39 -3.1 °C -7.6 °C 1001.9 hPa SW 14.2 km/h 27.8 km/h 71 % 0 mm
17:44 -3.1 °C -7.9 °C 1001.9 hPa WNW 15 km/h 24.1 km/h 69 % 0 mm
17:49 -3.1 °C -7.8 °C 1001.9 hPa NW 8.5 km/h 14.8 km/h 70 % 0 mm
17:54 -3.1 °C -8.2 °C 1002.3 hPa WSW 10.1 km/h 16.7 km/h 68 % 0 mm
17:59 -3.2 °C -8.2 °C 1002.3 hPa NNW 16.6 km/h 33.3 km/h 68 % 0 mm
18:04 -3.2 °C -8.3 °C 1002.3 hPa West 12.1 km/h 24.1 km/h 68 % 0 mm
18:09 -3.3 °C -8.3 °C 1002.3 hPa WSW 7.7 km/h 25.9 km/h 68 % 0 mm
18:14 -3.3 °C -8.2 °C 1002.6 hPa West 14.5 km/h 22.2 km/h 69 % 0 mm
18:19 -3.3 °C -8.2 °C 1002.6 hPa WSW 13.7 km/h 25.9 km/h 69 % 0 mm
18:24 -3.3 °C -8.3 °C 1002.6 hPa West 7.7 km/h 20.9 km/h 68 % 0 mm
18:29 -3.3 °C -8.7 °C 1002.9 hPa WSW 17.9 km/h 22.2 km/h 66 % 0 mm
18:34 -3.3 °C -8.7 °C 1002.9 hPa WSW 15.3 km/h 22.5 km/h 66 % 0 mm
18:39 -3.3 °C -9 °C 1002.9 hPa West 12.4 km/h 16.7 km/h 65 % 0 mm
18:44 -3.3 °C -9.2 °C 1002.9 hPa NW 14.6 km/h 31.5 km/h 64 % 0 mm
18:49 -3.3 °C -9.4 °C 1003.3 hPa WNW 19.3 km/h 31.5 km/h 63 % 0 mm
18:54 -3.3 °C -9.1 °C 1003.6 hPa NW 13.2 km/h 20.9 km/h 64 % 0 mm
19:00 -3.3 °C -8.9 °C 1003.3 hPa NNW 9.3 km/h 35.2 km/h 65 % 0 mm
19:05 -3.2 °C -9 °C 1003.6 hPa SW 16.4 km/h 31.5 km/h 64 % 0 mm
19:10 -3.2 °C -9.2 °C 1003.6 hPa WNW 14.6 km/h 29 km/h 63 % 0 mm
19:15 -3.2 °C -9 °C 1003.6 hPa West 15.9 km/h 25.7 km/h 64 % 0 mm
19:20 -3.2 °C -9.2 °C 1003.6 hPa NW 15.9 km/h 31.5 km/h 63 % 0 mm
19:25 -3.2 °C -8.8 °C 1003.9 hPa NW 15.3 km/h 33.8 km/h 65 % 0 mm
19:30 -3.2 °C -8.9 °C 1004.3 hPa West 18 km/h 18 km/h 65 % 0 mm
19:35 -3.2 °C -9.3 °C 1004.3 hPa NW 16.6 km/h 33.3 km/h 63 % 0 mm
19:40 -3.2 °C -9.3 °C 1004.6 hPa West 18.3 km/h 29.6 km/h 63 % 0 mm
19:45 -3.2 °C -9.3 °C 1004.3 hPa WNW 19 km/h 31.5 km/h 63 % 0 mm
19:50 -3.3 °C -9.6 °C 1004.6 hPa WNW 15.3 km/h 31.5 km/h 62 % 0 mm
19:55 -3.2 °C -9.5 °C 1004.6 hPa WNW 14.8 km/h 24.1 km/h 62 % 0 mm
20:00 -3.2 °C -9.9 °C 1005 hPa West 19.3 km/h 38.9 km/h 60 % 0 mm
20:05 -3.2 °C -9.9 °C 1005 hPa WSW 14 km/h 33.3 km/h 60 % 0 mm
20:10 -3.2 °C -9.7 °C 1005 hPa WNW 16.1 km/h 27.8 km/h 61 % 0 mm
20:15 -3.2 °C -9.9 °C 1005.3 hPa NW 17.9 km/h 24.1 km/h 60 % 0 mm
20:20 -3.2 °C -9.7 °C 1005.3 hPa WNW 16.1 km/h 25.9 km/h 61 % 0 mm
20:25 -3.2 °C -9.4 °C 1005.6 hPa WNW 17.7 km/h 27.8 km/h 62 % 0 mm
20:30 -3.2 °C -9.9 °C 1005.6 hPa West 14 km/h 29.6 km/h 60 % 0 mm
20:35 -3.2 °C -9.4 °C 1006 hPa West 16.7 km/h 35.4 km/h 62 % 0 mm
20:40 -3.2 °C -9.4 °C 1006 hPa West 9.5 km/h 20.4 km/h 62 % 0 mm
20:45 -3.2 °C -9.4 °C 1006.3 hPa NW 12.1 km/h 29.6 km/h 62 % 0 mm
20:50 -3.2 °C -9.5 °C 1006.3 hPa NNW 10.5 km/h 22.2 km/h 62 % 0 mm
20:56 -3.2 °C -9.7 °C 1006.3 hPa NW 10.3 km/h 20.4 km/h 61 % 0 mm
21:01 -3.2 °C -9.7 °C 1006.3 hPa West 24.8 km/h 41.8 km/h 61 % 0 mm
21:06 -3.2 °C -9.4 °C 1006.7 hPa WSW 17.2 km/h 35.2 km/h 62 % 0 mm
21:11 -3.2 °C -9.2 °C 1006.7 hPa West 10.9 km/h 20.9 km/h 63 % 0 mm
21:16 -3.2 °C -9.2 °C 1006.7 hPa WSW 11.1 km/h 22.2 km/h 63 % 0 mm
21:21 -3.2 °C -9.4 °C 1007 hPa WSW 19.6 km/h 33.8 km/h 62 % 0 mm
21:26 -3.2 °C -9.2 °C 1007 hPa West 13.7 km/h 27.8 km/h 63 % 0 mm
21:31 -3.2 °C -9.2 °C 1007 hPa West 9 km/h 29.6 km/h 63 % 0 mm
21:36 -3.2 °C -9.5 °C 1007 hPa WNW 14.6 km/h 27.8 km/h 62 % 0 mm
21:41 -3.2 °C -9.3 °C 1007.3 hPa WNW 13.7 km/h 25.7 km/h 63 % 0 mm
21:46 -3.2 °C -9.5 °C 1007.3 hPa WSW 11.6 km/h 22.5 km/h 62 % 0 mm
21:51 -3.2 °C -9.2 °C 1007.3 hPa West 11.9 km/h 22.2 km/h 63 % 0 mm
21:56 -3.2 °C -9.2 °C 1007.7 hPa WSW 18.3 km/h 35.4 km/h 63 % 0 mm
22:01 -3.2 °C -9.4 °C 1007.7 hPa NW 15.4 km/h 31.5 km/h 62 % 0 mm
22:06 -3.1 °C -9.2 °C 1008 hPa WNW 14.3 km/h 29.6 km/h 63 % 0 mm
22:11 -3.1 °C -8.9 °C 1008 hPa WNW 12.2 km/h 29.6 km/h 64 % 0 mm
22:16 -3.1 °C -9.1 °C 1008 hPa West 12.9 km/h 22.2 km/h 63 % 0 mm
22:21 -3.1 °C -8.7 °C 1008 hPa WSW 9.2 km/h 18.5 km/h 65 % 0 mm
22:26 -3 °C -8.8 °C 1008 hPa West 11.6 km/h 37 km/h 64 % 0 mm
22:31 -3 °C -8.7 °C 1008 hPa WNW 15.6 km/h 32.2 km/h 65 % 0 mm
22:36 -3 °C -8.4 °C 1008.4 hPa West 16.6 km/h 27.8 km/h 66 % 0 mm
22:41 -3 °C -8.4 °C 1008.4 hPa NW 14 km/h 24.1 km/h 66 % 0 mm
22:46 -3 °C -8.3 °C 1008 hPa NW 15.9 km/h 20.4 km/h 67 % 0 mm
22:51 -3 °C -8.4 °C 1008.4 hPa WSW 8 km/h 24.1 km/h 66 % 0 mm
22:56 -2.9 °C -8 °C 1008.4 hPa NW 11.9 km/h 20.9 km/h 68 % 0 mm
23:01 -2.9 °C -8.2 °C 1008.4 hPa West 10.6 km/h 22.2 km/h 67 % 0 mm
23:06 -2.9 °C -8.2 °C 1008.4 hPa WNW 15.4 km/h 31.5 km/h 67 % 0 mm
23:11 -2.9 °C -8.4 °C 1008.4 hPa NNW 15 km/h 30.6 km/h 66 % 0 mm
23:16 -2.9 °C -8.3 °C 1008.4 hPa WSW 12.7 km/h 20.4 km/h 66 % 0 mm
23:21 -2.9 °C -8.6 °C 1008.4 hPa West 16.3 km/h 27.8 km/h 65 % 0 mm
23:27 -2.8 °C -8.5 °C 1008.4 hPa West 15.9 km/h 41.8 km/h 65 % 0 mm
23:32 -2.8 °C -8.7 °C 1008.4 hPa WSW 11.3 km/h 33.3 km/h 64 % 0 mm
23:37 -2.8 °C -8.5 °C 1008.4 hPa West 15.9 km/h 25.9 km/h 65 % 0 mm
23:42 -2.8 °C -8.9 °C 1008.4 hPa WNW 12.1 km/h 31.5 km/h 63 % 0 mm
23:47 -2.8 °C -8.7 °C 1008.7 hPa NW 12.9 km/h 18.5 km/h 64 % 0 mm
23:52 -2.8 °C -8.9 °C 1008.7 hPa WSW 11.6 km/h 35.2 km/h 63 % 0 mm
23:57 -2.8 °C -8.9 °C 1008.7 hPa West 16.6 km/h 45.1 km/h 63 % 0 mm
Crab Meadow Weather
Compliments of Weather Underground - 3.25 mb

Script developed by  Jim McMurry - jmcmurry@mwt.net Adapted for the template by  Wim van der Kuil - Leuven-Template.eu

Recycling: We use over 80,000,000,000 aluminum soda cans every year.